{"data":{"norad_id":51142,"intl_designator":"2022-005AQ","name":"STARLINK-3369","alt_names":[],"object_type":"PAYLOAD","status":"ACTIVE","operator":null,"country":"US","launch_date":"2022-01-19","launch_site_code":"AFETR","launch_vehicle":null,"mission":null,"orbit_class":"UNKNOWN","rcs_meters":null,"size_class":null,"mass_kg":null,"dimensions":null,"purposes":["comms"],"wikipedia_slug":null,"has_3d_model":false,"image_url":null,"decayed_at":null,"tle_current":{"epoch":"2026-05-25T03:13:56.085888Z","epoch_age_seconds":70191,"freshness":"FRESH","line1":"1 51142U 22005AQ  26145.13467692  .00026992  00000+0  11264-2 0  9991","line2":"2 51142  53.2245 291.9465 0005338 103.6283 256.5311 15.23491042240611","mean_motion":15.23491042,"eccentricity":0.0005338,"inclination_deg":53.2245,"raan_deg":291.9465,"arg_perigee_deg":103.6283,"mean_anomaly_deg":256.5311,"bstar":0.0011264,"rev_number":24061,"period_min":94.519754977332,"perigee_km":491.65123233786,"apogee_km":498.98933533408,"semimajor_km":6873.457283836,"source":"CELESTRAK","updated_at":"2026-05-25T13:38:16.914849Z"}}}